Location: Spondin
(51.8528°N, 111.6118°W)
Time: 17:31:16
(UTC+00:00)

Vanguard 2 Rocket - Pass Details

Date: 04 June 2022
Orbit: 553 x 3323 km, 32.9° (Epoch: 02 July)

Event Time Altitude Azimuth Distance (km) Brightness Sun altitude
Rises 22:29:03 0° 266° (W) 7,303 12.2 44.2°
Reaches altitude 10° 22:34:50 10° 259° (WSW) 6,266 12.2 43.4°
Maximum altitude 22:50:25 31° 207° (SSW) 4,163 11.2 41.1°
Drops below altitude 10° 23:02:17 10° 152° (SSE) 4,741 10.5 39.3°
Sets 23:05:57 0° 142° (SE) 5,370 10.6 38.8°
